This is the latest recevied weather packets stored in our database for station/object KB1RMA-13. If no packets are shown the sender has not sent any weather packets the latest 10 day(s).
| Time | Temp. | Humidity | Pressure | Rain* | Wind** | Luminosity | Snow |
|---|---|---|---|---|---|---|---|
| 1777407652 | 10° C | 72% | 1022.1 hPa | 0 mm | - | 509 W/m² | - |
| 1777407352 | 10° C | 73% | 1022 hPa | 0 mm | - | 525 W/m² | - |
| 1777407047 | 9.44° C | 74% | 1022.2 hPa | 0 mm | - | 471 W/m² | - |
| 1777406742 | 9.44° C | 72% | 1021.9 hPa | 0 mm | - | 566 W/m² | - |
| 1777406438 | 9.44° C | 73% | 1022 hPa | 0 mm | - | 584 W/m² | - |
| 1777406138 | 9.44° C | 74% | 1022 hPa | 0 mm | - | 597 W/m² | - |
| 1777405834 | 10° C | 74% | 1022.1 hPa | 0 mm | - | 515 W/m² | - |
| 1777405530 | 10° C | 75% | 1022.2 hPa | 0 mm | - | 617 W/m² | - |
| 1777405228 | 10° C | 69% | 1022.2 hPa | 0 mm | - | 635 W/m² | - |
| 1777404926 | 10° C | 73% | 1022.2 hPa | 0 mm | - | 471 W/m² | - |
| 1777404622 | 10° C | 72% | 1022.4 hPa | 0 mm | - | 657 W/m² | - |
| 1777404318 | 10° C | 68% | 1022.6 hPa | 0 mm | - | 655 W/m² | - |
| 1777404015 | 10° C | 75% | 1022.7 hPa | 0 mm | - | 685 W/m² | - |
| 1777403710 | 9.44° C | 75% | 1022.7 hPa | 0 mm | - | 701 W/m² | - |
| 1777403409 | 10° C | 76% | 1022.8 hPa | 0 mm | - | 715 W/m² | - |
| 1777403103 | 10.56° C | 77% | 1022.6 hPa | 0 mm | - | 731 W/m² | - |
| 1777402800 | 9.44° C | 78% | 1022.9 hPa | 0 mm | - | 70 W/m² | - |
| 1777402496 | 9.44° C | 76% | 1022.9 hPa | 0 mm | - | 751 W/m² | - |
| 1777402194 | 10° C | 78% | 1023.2 hPa | 0 mm | - | 760 W/m² | - |
| 1777401894 | 10° C | 78% | 1023.3 hPa | 0 mm | - | 770 W/m² | - |
| 1777401593 | 10° C | 80% | 1023.3 hPa | 0 mm | - | 394 W/m² | - |
| 1777401290 | 10° C | 80% | 1023.2 hPa | 0 mm | - | 758 W/m² | - |
| 1777400985 | 10° C | 78% | 1023.4 hPa | 0 mm | - | 796 W/m² | - |
| 1777400681 | 10° C | 79% | 1023.4 hPa | 0 mm | - | 809 W/m² | - |
| 1777400379 | 10° C | 80% | 1023.4 hPa | 0 mm | - | 817 W/m² | - |
* Rain latest hour (hover to see other rain measurements)
** Current wind speed in m/s (hover to see current wind gust speed)